User: anonymous   Login
Location: ?ejeti?ky
(50.4060°N, 14.9016°E)
Time: 15:36:20
(UTC+00:00)
Language:

STARLINK-1328 - Orbit

View from above orbital plane
View from above orbital plane
View from above satellite
View from above satellite

Ground track
Ground track

The orbit data is extracted from the following two-line orbital elements,

1 45576U 20025AX  20225.50001157 -.01064528  00000-0 -43898-1 0  9997
2 45576  53.0028 213.6209 0001210  82.9678 226.4884 15.26512202 18160
Epoch (UTC): 12 August 2020 12:00:01
Eccentricity: 0.0001210
inclination: 53.0028°
perigee height: 485 km
apogee height: 487 km
right ascension of ascending node: 213.6209°
argument of perigee: 82.9678°
revolutions per day: 15.26512202
mean anomaly at epoch: 226.4884°
orbit number at epoch: 1816

The dashed part of the orbit path shows where the satellite is in the earth's shadow,  

DLR